Regional Weather Roundup
Issued by NWS

Home | Current Version | Previous Version | Graphics & Text | Print | Product List | Glossary On
Versions: 1 2 3 4 5 6 7 8 9 10 11 12 13 14 15 16 17 18 19 20 21 22 23 24 25 26 27 28 29 30 31 32 33 34 35 36 37 38 39 40 41 42 43 44 45 46 47 48 49 50
000
ASUS43 KLSX 271207
RWRMO

WEATHER SUMMARY FOR MISSOURI
NATIONAL WEATHER SERVICE SPRINGFIELD MO
700 AM CDT TUE SEP 27 2016

NOTE: "FAIR" INDICATES FEW OR NO CLOUDS BELOW 12,000 FEET WITH NO
       SIGNIFICANT WEATHER AND/OR OBSTRUCTIONS TO VISIBILITY.
       CURRENT SKY AND/OR WEATHER CONDITIONS ARE NOT AVAILABLE FOR
       CHILLICOTHE AND FARMINGTON.

MOZ001>031-035>038-043-044-053-054-271300-
...NORTHERN AND WESTERN MISSOURI...

CITY           SKY/WX    TMP DP  RH WIND       PRES   REMARKS
KANSAS CTY INT CLEAR     50  45  83 SW8       30.05S
6HR MIN TEMP:  50; 6HR MAX TEMP:  56;

KANSAS C DTWN  CLEAR     56  46  69 SW3       30.05S
6HR MIN TEMP:  56; 6HR MAX TEMP:  61;

LEE`S SUMMIT   CLEAR     55  47  74 SW6       30.06F
6HR MIN TEMP:  54; 6HR MAX TEMP:  57;

ST JOSEPH      CLEAR     51  48  89 S3        30.04S
6HR MIN TEMP:  51; 6HR MAX TEMP:  55;

CHILLICOTHE      N/A     48  46  93 CALM      30.03F
6HR MIN TEMP:  48; 6HR MAX TEMP:  59;

KIRKSVILLE     CLEAR     49  46  90 W6        30.01S
6HR MIN TEMP:  49; 6HR MAX TEMP:  57;


$$
MOZ066>068-077>081-088>096-101>105-271300-
...SOUTHWEST MISSOURI...

CITY           SKY/WX    TMP DP  RH WIND       PRES   REMARKS
SPRINGFIELD    CLEAR     48  43  82 S3        30.10S
6HR MIN TEMP:  48; 6HR MAX TEMP:  51;

JOPLIN         CLEAR     48  44  86 S5        30.13R
6HR MIN TEMP:  48; 6HR MAX TEMP:  52;

BRANSON        PTCLDY    50  45  81 SW5       30.12S

$$
MOZ032>034-039>042-045>050-055>058-069>072-271300-
...CENTRAL MISSOURI...

CITY           SKY/WX    TMP DP  RH WIND       PRES   REMARKS
COLUMBIA       CLEAR     54  45  71 W9        30.05R
6HR MIN TEMP:  54; 6HR MAX TEMP:  57;

JEFFERSON CITY CLEAR     51  48  89 VRB3      30.06R
6HR MIN TEMP:  49; 6HR MAX TEMP:  54;

ROLLA          CLEAR     49  44  83 SW9       30.06S
6HR MIN TEMP:  48; 6HR MAX TEMP:  50;

SEDALIA        CLEAR     53  45  74 SW9       30.07R
6HR MIN TEMP:  53; 6HR MAX TEMP:  57;

WHITEMAN AFB   CLEAR     53  46  78 W6        30.05S
OSAGE BEACH    CLEAR     46  45  96 CALM      30.09R

$$
MOZ051-052-059>065-271300-
...EAST CENTRAL MISSOURI...

CITY           SKY/WX    TMP DP  RH WIND       PRES   REMARKS
ST LOUIS INTL  PTCLDY    57  44  62 SW7       30.03S
6HR MIN TEMP:  56; 6HR MAX TEMP:  60;

SPIRIT OF STL  CLEAR     55  46  71 SW9       30.02S
6HR MIN TEMP:  49; 6HR MAX TEMP:  55;

ST CHARLES     CLEAR     49  47  93 CALM      30.02R
6HR MIN TEMP:  48; 6HR MAX TEMP:  53;


$$
MOZ072>076-082>087-097>100-106>115-271300-
...SOUTH CENTRAL AND SOUTHEAST MISSOURI...

CITY           SKY/WX    TMP DP  RH WIND       PRES   REMARKS
CAPE GIRARDEAU PTCLDY    45  44  97 CALM      30.06S FOG
6HR MIN TEMP:  44; 6HR MAX TEMP:  49;

FARMINGTON     CLEAR     45  44  97 CALM      30.07S FOG
6HR MIN TEMP:  45; 6HR MAX TEMP:  48;

POPLAR BLUFF   CLEAR     49  47  93 CALM      30.07R
6HR MIN TEMP:  49; 6HR MAX TEMP:  53;

WEST PLAINS    CLEAR     47  42  83 CALM      30.11S
6HR MIN TEMP:  47; 6HR MAX TEMP:  51;


$$



USA.gov is the U.S. government's official web portal to all federal, state and local government web resources and services.